This demonstration page uses our WeatherBlox Daily Observations layout. Learn more.

Left ArrowRight Arrow

Hourly Observations for November 14, 2015

Temp ( °F °C ) Dew Point ( °F °C ) Humidity (%) Winds ( mph kmh ) Pressure ( in mb ) Visibility ( mi km ) Precip ( " mm )
12:51 am 00:51 Clear 54 12.2 25 -3.9 33 33 ESE 12 19 29.97 1015 10 16.0934 N/A
1:51 am 01:51 Clear 54 12.2 25 -3.9 33 33 ESE 14 22 29.96 1015 10 16.0934 N/A
2:51 am 02:51 Clear 54 12.2 25 -3.9 33 33 ESE 13 20 29.97 1015 10 16.0934 N/A
3:51 am 03:51 Clear 53 11.7 25 -3.9 34 34 ESE 15 24 29.96 1015 10 16.0934 N/A
4:51 am 04:51 Clear 54 12.2 24 -4.4 31 31 SE 17 28 29.96 1015 10 16.0934 N/A
5:51 am 05:51 Clear 53 11.7 24 -4.4 32 32 ESE 14 22 29.99 1016 10 16.0934 N/A
6:51 am 06:51 Sunny 52 11.1 24 -4.4 34 34 ESE 12 19 30.01 1016 10 16.0934 N/A
7:51 am 07:51 Sunny 56 13.3 25 -3.9 30 30 ESE 15 24 30.03 1017 10 16.0934 N/A
8:51 am 08:51 Sunny 59 15 25 -3.9 27 27 ESE 14 22 30.04 1017 10 16.0934 N/A
9:51 am 09:51 Sunny 63 17.2 26 -3.3 25 25 ESE 15 24 30.01 1016 10 16.0934 N/A
10:51 am 10:51 Sunny 66 18.9 28 -2.2 24 24 ESE 8 13 30 1016 10 16.0934 N/A
11:51 am 11:51 Sunny 70 21.1 29 -1.7 22 22 VRB 5 7 29.96 1015 10 16.0934 N/A
12:51 pm 12:51 Sunny 73 22.8 30 -1.1 20 20 SE 10 17 29.92 1013 10 16.0934 N/A
1:51 pm 13:51 Sunny 74 23.3 31 -0.6 20 20 SSE 8 13 29.89 1012 10 16.0934 N/A
2:51 pm 14:51 Sunny 76 24.4 30 -1.1 18 18 E 5 7 29.87 1012 10 16.0934 N/A
3:51 pm 15:51 Sunny 76 24.4 28 -2.2 17 17 ESE 6 9 29.85 1011 10 16.0934 N/A
4:51 pm 16:51 Sunny 72 22.2 29 -1.7 20 20 S 6 9 29.86 1011 10 16.0934 N/A
5:51 pm 17:51 Clear 66 18.9 31 -0.6 27 27 W 5 7 29.88 1012 10 16.0934 N/A
6:51 pm 18:51 Clear 59 15 30 -1.1 33 33 N 8 13 29.91 1013 10 16.0934 N/A
7:51 pm 19:51 Clear 59 15 29 -1.7 32 32 N N/A 29.92 1013 10 16.0934 N/A
8:51 pm 20:51 Clear 56 13.3 30 -1.1 37 37 NE 7 11 29.92 1013 10 16.0934 N/A
9:51 pm 21:51 Partly Cloudy 54 12.2 33 0.6 45 45 SE 5 7 29.94 1014 10 16.0934 N/A
10:51 pm 22:51 Partly Cloudy 54 12.2 33 0.6 45 45 N N/A 29.93 1014 10 16.0934 N/A
11:51 pm 23:51 Clear 53 11.7 33 0.6 47 47 N N/A 29.93 1013 10 16.0934 N/A

Powered by AerisWeather